Weather Roundup
Issued by NWS Springfield, MO

Home | Current Version | Previous Version | Text Only | Print | Product List | Glossary On
Versions: 1 2 3 4 5 6 7 8 9 10 11 12 13 14 15 16 17 18 19 20 21 22 23 24 25 26 27 28 29 30 31 32 33 34 35 36 37 38 39 40 41 42 43 44 45 46 47 48 49 50
000
NZUS99 KSGF 251457
HRRSGF

HOURLY WEATHER
NATIONAL WEATHER SERVICE SPRINGFIELD MO
1000 AM CDT MON JUL 25 2016

......SGF CWA......

CITY           SKY/WX    TMP DP  RH WIND       PRES   REMARKS
SPRINGFIELD    RAIN      72  69  90 SE10      30.09F
JOPLIN         CLOUDY    76  70  82 VRB6      30.12R THUNDER
WEST PLAINS    CLOUDY    75  71  87 N5        30.09R
ROLLA          CLOUDY    75  71  87 S6        30.04S
BRANSON        CLOUDY    75  73  94 NE10G18   30.10R

......SURROUNDING SGF CWA......

CITY           SKY/WX    TMP DP  RH WIND       PRES   REMARKS
CHANUTE        RAIN      72  70  93 NW10      30.14R FOG
PARSONS          N/A    N/A N/A N/A MISG      30.11S
COFFEYVILLE    CLOUDY    72  69  90 NE13      30.08F
EMPORIA        LGT RAIN  71  70  96 SE3       30.13S FOG
ROGERS AR      CLOUDY    77  72  83 NE7       30.08F
HARRISON AR    PTSUNNY   77  72  84 N8        30.09R

......KANSAS AND MISSOURI......

CITY           SKY/WX    TMP DP  RH WIND       PRES   REMARKS
KANSAS CTY INT CLOUDY    75  67  76 NE7       30.10R
DOWNTOWN KC    CLOUDY    76  68  76 E6        30.08R
SEDALIA        CLOUDY    77  73  87 NW3       30.09R
ST JOSEPH      CLOUDY    75  65  70 NE6       30.10R
ST LOUIS       CLOUDY    79  72  79 NW6       30.04R
WICHITA        CLOUDY    74  67  78 E17G26    30.06R
TOPEKA         CLOUDY    73  70  90 SW3       30.11R
OLATHE         CLOUDY    75  69  81 CALM      30.11R

......TENNESSEE......

CITY           SKY/WX    TMP DP  RH WIND       PRES   REMARKS
MEMPHIS        NOT AVBL
NASHVILLE      MOSUNNY   89  72  56 S7        30.05R HX  96

......ARKANSAS.......

CITY           SKY/WX    TMP DP  RH WIND       PRES   REMARKS
FAYETTEVILLE   LGT RAIN  79  75  87 W5        30.06R
FT SMITH       MOSUNNY   86  71  60 VRB3      30.00S HX  91
LITTLE ROCK    MOSUNNY   88  71  57 W7        30.01R HX  94

......OKLAHOMA.......

CITY           SKY/WX    TMP DP  RH WIND       PRES   REMARKS
TULSA          PTSUNNY   87  73  62 N18G24    30.02R HX  94
PONCA CITY     CLOUDY    79  70  74 E17G26    30.05R
MCALESTER      CLOUDY    84  73  69 W6        30.03R HX  90
OKLAHOMA CITY  MOSUNNY   86  70  58 E8        30.04R HX  90

......IOWA............

CITY           SKY/WX    TMP DP  RH WIND       PRES   REMARKS
DES MOINES     NOT AVBL
QUAD CITIES    MOSUNNY   80  66  62 VRB7      30.02S

......ILLINOIS........

CITY           SKY/WX    TMP DP  RH WIND       PRES   REMARKS
QUINCY         NOT AVBL
CHICAGO        MOSUNNY   80  64  58 N7        30.00R



USA.gov is the U.S. government's official web portal to all federal, state and local government web resources and services.